HS5SQI-2 Weather Reports


time (UTC)temp
C
wind
direction
speed
KPH
gust
KPH
rain 1hr
cm
rain 24hr
cm
rain mn
cm
humidity
%
barometer
mb
20260504172206 27 0 0.0 0.0 0.00 0.00 0.00 88 1009.0
20260504171144 28 0 0.0 0.0 0.00 0.00 0.00 85 1009.0
20260504170122 29 0 0.0 0.0 0.00 0.00 0.00 81 1010.0
20260504150720 30 0 0.0 0.0 0.00 0.00 0.00 79 1009.0
20260504140507 30 0 0.0 0.0 0.00 0.00 0.00 80 1008.0
20260504130255 30 0 0.0 0.0 0.00 0.00 0.00 77 1007.0
20260504081238 30 0 0.0 0.0 0.00 0.00 0.00 74 1006.0
20260504080216 31 0 0.0 0.0 0.00 0.00 0.00 73 1006.0
20260504050602 39 0 0.0 0.0 0.00 0.00 0.00 49 1007.0
20260504045540 40 0 0.0 0.0 0.00 0.00 0.00 48 1007.0
20260504044518 40 0 0.0 0.0 0.00 0.00 0.00 50 1007.0
20260504043456 39 0 0.0 0.0 0.00 0.00 0.00 49 1007.0
20260504042433 39 0 0.0 0.0 0.00 0.00 0.00 49 1007.0
20260504041411 40 0 0.0 0.0 0.00 0.00 0.00 50 1008.0
20260504040349 39 0 0.0 0.0 0.00 0.00 0.00 53 1008.0
20260504035327 38 0 0.0 0.0 0.00 0.00 0.00 53 1008.0
20260504034305 38 0 0.0 0.0 0.00 0.00 0.00 54 1008.0
20260504033243 38 0 0.0 0.0 0.00 0.00 0.00 55 1008.0
20260504032221 38 0 0.0 0.0 0.00 0.00 0.00 55 1008.0
20260504031159 37 0 0.0 0.0 0.00 0.00 0.00 58 1008.0
20260504030137 36 0 0.0 0.0 0.00 0.00 0.00 60 1008.0
20260504025115 36 0 0.0 0.0 0.00 0.00 0.00 61 1008.0
20260504024053 36 0 0.0 0.0 0.00 0.00 0.00 61 1008.0
20260504023031 36 0 0.0 0.0 0.00 0.00 0.00 63 1008.0
20260504022009 36 0 0.0 0.0 0.00 0.00 0.00 63 1008.0
20260504020947 36 0 0.0 0.0 0.00 0.00 0.00 63 1008.0
20260504015925 35 0 0.0 0.0 0.00 0.00 0.00 67 1008.0
20260504014903 35 0 0.0 0.0 0.00 0.00 0.00 67 1009.0
20260504013841 35 0 0.0 0.0 0.00 0.00 0.00 69 1009.0
20260504012819 34 0 0.0 0.0 0.00 0.00 0.00 72 1009.0
20260504011757 34 0 0.0 0.0 0.00 0.00 0.00 73 1009.0
20260504010735 33 0 0.0 0.0 0.00 0.00 0.00 75 1008.0
20260504005713 33 0 0.0 0.0 0.00 0.00 0.00 75 1008.0
20260504004651 33 0 0.0 0.0 0.00 0.00 0.00 78 1008.0
20260504003629 32 0 0.0 0.0 0.00 0.00 0.00 79 1008.0
20260504002607 32 0 0.0 0.0 0.00 0.00 0.00 85 1008.0
20260504001545 31 0 0.0 0.0 0.00 0.00 0.00 92 1008.0
20260503235708 31 0 0.0 0.0 0.00 0.00 0.00 92 1007.0
20260503234645 29 0 0.0 0.0 0.00 0.00 0.00 99 1007.0
20260503210013 32 0 0.0 0.0 0.00 0.00 0.00 74 1006.0
20260503204951 32 0 0.0 0.0 0.00 0.00 0.00 74 1006.0
20260503203929 31 0 0.0 0.0 0.00 0.00 0.00 77 1006.0
20260503202907 32 0 0.0 0.0 0.00 0.00 0.00 74 1006.0
20260503201845 32 0 0.0 0.0 0.00 0.00 0.00 75 1006.0
20260503200823 32 0 0.0 0.0 0.00 0.00 0.00 73 1006.0
20260503195801 32 0 0.0 0.0 0.00 0.00 0.00 74 1006.0
20260503194739 33 0 0.0 0.0 0.00 0.00 0.00 72 1006.0
20260503193716 32 0 0.0 0.0 0.00 0.00 0.00 74 1006.0
20260503192654 33 0 0.0 0.0 0.00 0.00 0.00 72 1006.0
20260503191632 33 0 0.0 0.0 0.00 0.00 0.00 72 1007.0
20260503190610 32 0 0.0 0.0 0.00 0.00 0.00 73 1007.0
20260503185548 32 0 0.0 0.0 0.00 0.00 0.00 73 1007.0
20260503184526 32 0 0.0 0.0 0.00 0.00 0.00 76 1007.0
20260503183504 32 0 0.0 0.0 0.00 0.00 0.00 74 1007.0
20260503182442 33 0 0.0 0.0 0.00 0.00 0.00 69 1007.0
20260503181420 33 0 0.0 0.0 0.00 0.00 0.00 70 1007.0
20260503180358 33 0 0.0 0.0 0.00 0.00 0.00 71 1007.0
20260503175336 33 0 0.0 0.0 0.00 0.00 0.00 70 1007.0
20260503174314 32 0 0.0 0.0 0.00 0.00 0.00 73 1007.0
20260503173252 32 0 0.0 0.0 0.00 0.00 0.00 73 1007.0